Location: Mahannah Oil Field
(37.4664°N, 96.6003°W)
Time: 01:47:31
(UTC+00:00)

A-11 Canister half - Pass Details

Date: 01 February 2021
Orbit: 1524 x 1684 km, 47.3° (Epoch: 25 February)

Event Time Altitude Azimuth Distance (km) Brightness Sun altitude
Rises 00:01:27 0° 299° (WNW) 4,708 12.2 -3.0°
Reaches altitude 10° 00:04:31 10° 302° (WNW) 3,740 11.6 -3.6°
Maximum altitude 00:14:00 70° 26° (NNE) 1,673 9.1 -5.3°
Drops below altitude 10° 00:23:47 10° 110° (ESE) 3,857 10.6 -7.2°
Sets 00:26:59 0° 113° (ESE) 4,862 11.1 -7.8°
